DL5ARK Weather Reports


Display with metric or nautical units.
time (UTC)temp
F
wind
direction
speed
MPH
gust
MPH
rain 1hr
in
rain 24hr
in
rain mn
in
humidity
%
barometer
mb
20260510204847 60 90 7.0 7.0 0.00 0.00 0.00 65 993.4
20260510204550 60 90 6.0 6.0 0.00 0.00 0.00 64 993.6
20260510204247 60 90 5.0 5.0 0.00 0.00 0.00 65 993.4
20260510203947 60 90 7.0 8.0 0.00 0.00 0.00 64 993.6
20260510203647 60 90 6.0 6.0 0.00 0.00 0.00 65 993.6
20260510203346 60 90 5.0 5.0 0.00 0.00 0.00 65 993.6
20260510203047 60 337 3.0 3.0 0.00 0.00 0.00 64 993.6
20260510202448 60 90 2.0 2.0 0.00 0.00 0.00 64 993.6
20260510202148 61 337 2.0 2.0 0.00 0.00 0.00 64 993.6
20260510201547 61 337 5.0 6.0 0.00 0.00 0.00 63 993.6
20260510201248 60 0 1.0 1.0 0.00 0.00 0.00 64 993.9
20260510200648 61 90 1.0 1.0 0.00 0.00 0.00 64 993.9
20260510200347 61 0 2.0 2.0 0.00 0.00 0.00 64 993.9
20260510200047 61 90 3.0 3.0 0.00 0.00 0.00 63 993.9
20260510195748 61 67 3.0 3.0 0.00 0.00 0.00 63 993.9
20260510195448 61 67 6.0 6.0 0.00 0.00 0.00 63 993.9
20260510195147 61 67 7.0 7.0 0.00 0.00 0.00 63 993.9
20260510194847 61 22 0.0 0.0 0.00 0.00 0.00 63 993.9
20260510194547 61 67 4.0 4.0 0.00 0.00 0.00 63 993.9
20260510194247 61 67 1.0 2.0 0.00 0.00 0.00 62 993.9
20260510193948 62 90 6.0 6.0 0.00 0.00 0.00 62 993.9
20260510193648 62 0 5.0 5.0 0.00 0.00 0.00 62 993.9
20260510193350 61 90 8.0 8.0 0.00 0.00 0.00 63 993.9
20260510193048 61 67 8.0 8.0 0.00 0.00 0.00 62 993.9
20260510192747 61 67 2.0 2.0 0.00 0.00 0.00 63 993.9
20260510192447 61 337 2.0 2.0 0.00 0.00 0.00 64 993.9
20260510192148 61 337 3.0 3.0 0.00 0.00 0.00 63 993.9
20260510191848 61 45 3.0 3.0 0.00 0.00 0.00 63 993.9
20260510191550 62 22 4.0 4.0 0.00 0.00 0.00 63 993.9
20260510191247 62 112 2.0 2.0 0.00 0.00 0.00 64 993.9
20260510190948 62 67 2.0 2.0 0.00 0.00 0.00 63 993.9
20260510190648 62 67 4.0 4.0 0.00 0.00 0.00 63 993.9
20260510190347 62 45 2.0 2.0 0.00 0.00 0.00 63 993.9
20260510190047 62 0 2.0 2.0 0.00 0.00 0.00 63 993.9
20260510185750 62 90 1.0 1.0 0.00 0.00 0.00 63 993.9
20260510185447 62 90 6.0 6.0 0.00 0.00 0.00 63 993.9
20260510185148 62 67 3.0 3.0 0.00 0.00 0.00 63 993.9
20260510184848 62 67 5.0 5.0 0.00 0.00 0.00 63 993.9
20260510184548 62 45 3.0 3.0 0.00 0.00 0.00 63 993.9
20260510184248 62 90 2.0 2.0 0.00 0.00 0.00 63 994.1
20260510183950 62 90 5.0 5.0 0.00 0.00 0.00 63 993.9
20260510183647 63 337 4.0 4.0 0.00 0.00 0.00 62 993.9
20260510183347 63 45 1.0 1.0 0.00 0.00 0.00 62 993.9
20260510183048 63 67 3.0 3.0 0.00 0.00 0.00 62 993.9
20260510182748 63 22 3.0 3.0 0.00 0.00 0.00 62 994.1
20260510182447 63 90 4.0 4.0 0.00 0.00 0.00 61 994.1
20260510181847 63 45 2.0 2.0 0.00 0.00 0.00 61 993.9
20260510181547 63 67 1.0 1.0 0.00 0.00 0.00 60 993.9
20260510181247 64 45 6.0 6.0 0.00 0.00 0.00 59 994.1
20260510180947 64 90 4.0 4.0 0.00 0.00 0.00 59 993.9
20260510180347 64 67 1.0 1.0 0.00 0.00 0.00 59 994.1
20260510180048 64 337 1.0 1.0 0.00 0.00 0.00 58 993.9
20260510175746 64 67 6.0 6.0 0.00 0.00 0.00 58 994.1
20260510175448 65 45 7.0 7.0 0.00 0.00 0.00 57 994.1
20260510175148 65 67 0.0 0.0 0.00 0.00 0.00 57 994.1
20260510174847 65 45 2.0 2.0 0.00 0.00 0.00 57 993.9
20260510174548 65 45 1.0 1.0 0.00 0.00 0.00 56 993.9
20260510174247 65 337 5.0 5.0 0.00 0.00 0.00 56 993.9
20260510173948 66 22 4.0 4.0 0.00 0.00 0.00 56 993.9
20260510173647 66 337 2.0 2.0 0.00 0.00 0.00 56 993.9
20260510173350 66 45 1.0 1.0 0.00 0.00 0.00 56 993.9
20260510173047 66 337 1.0 1.0 0.00 0.00 0.00 56 994.1
20260510172747 66 337 4.0 4.0 0.00 0.00 0.00 54 993.9
20260510172447 66 22 1.0 2.0 0.00 0.00 0.00 56 994.1
20260510172147 66 45 1.0 1.0 0.00 0.00 0.00 55 994.1
20260510171847 67 45 9.0 9.0 0.00 0.00 0.00 54 994.1
20260510171550 67 45 10.0 10.0 0.00 0.00 0.00 55 994.1
20260510171248 67 67 7.0 7.0 0.00 0.00 0.00 54 994.4
20260510170948 67 45 2.0 2.0 0.00 0.00 0.00 55 994.4
20260510170647 68 337 3.0 3.0 0.00 0.00 0.00 54 994.4
20260510170347 68 22 1.0 1.0 0.00 0.00 0.00 54 994.4
20260510170047 69 22 2.0 2.0 0.00 0.00 0.00 54 994.4
20260510165750 69 0 10.0 10.0 0.00 0.00 0.00 53 994.4
20260510165448 69 90 2.0 2.0 0.00 0.00 0.00 53 994.4
20260510165148 69 45 1.0 2.0 0.00 0.00 0.00 53 994.6
20260510164848 70 90 5.0 5.0 0.00 0.00 0.00 53 994.6
20260510164548 70 337 2.0 2.0 0.00 0.00 0.00 52 994.6
20260510164247 70 337 4.0 4.0 0.00 0.00 0.00 51 994.6
20260510163948 70 90 1.0 1.0 0.00 0.00 0.00 52 994.8
20260510163647 71 0 1.0 2.0 0.00 0.00 0.00 51 994.8
20260510163348 72 90 5.0 5.0 0.00 0.00 0.00 49 994.8
20260510163048 72 337 1.0 1.0 0.00 0.00 0.00 49 994.8
20260510162747 72 45 1.0 1.0 0.00 0.00 0.00 50 994.8
20260510162147 72 67 5.0 5.0 0.00 0.00 0.00 50 994.8
20260510161848 72 90 3.0 3.0 0.00 0.00 0.00 50 994.8
20260510161547 73 45 4.0 4.0 0.00 0.00 0.00 51 994.8
20260510161248 73 67 2.0 2.0 0.00 0.00 0.00 51 994.8
20260510160648 72 90 4.0 4.0 0.00 0.00 0.00 49 995.1
20260510160347 72 67 5.0 5.0 0.00 0.00 0.00 50 994.8
20260510160047 71 337 4.0 4.0 0.00 0.00 0.00 49 995.1
20260510155747 71 90 2.0 2.0 0.00 0.00 0.00 51 995.1
20260510155148 71 90 3.0 4.0 0.00 0.00 0.00 50 995.3
20260510154847 70 67 2.0 2.0 0.00 0.00 0.00 52 995.3
20260510154548 70 90 2.0 2.0 0.00 0.00 0.00 51 995.3
20260510154248 70 90 4.0 4.0 0.00 0.00 0.00 51 995.3
20260510153950 70 90 4.0 4.0 0.00 0.00 0.00 50 995.3
20260510153648 70 337 5.0 5.0 0.00 0.00 0.00 50 995.3
20260510153348 70 90 2.0 2.0 0.00 0.00 0.00 51 995.6
20260510153047 70 90 3.0 3.0 0.00 0.00 0.00 50 995.6
20260510152747 70 90 2.0 2.0 0.00 0.00 0.00 49 995.6
20260510152447 70 90 3.0 3.0 0.00 0.00 0.00 49 995.6
20260510152147 70 90 3.0 3.0 0.00 0.00 0.00 48 995.6
20260510151847 70 90 5.0 5.0 0.00 0.00 0.00 49 995.8
20260510151548 70 67 6.0 6.0 0.00 0.00 0.00 48 995.6
20260510151247 70 90 4.0 4.0 0.00 0.00 0.00 48 995.8
20260510150947 71 90 3.0 3.0 0.00 0.00 0.00 47 995.8
20260510150648 71 90 5.0 5.0 0.00 0.00 0.00 47 995.8
20260510150350 72 45 3.0 3.0 0.00 0.00 0.00 47 995.8
20260510150048 72 337 2.0 2.0 0.00 0.00 0.00 46 995.8
20260510145748 73 67 5.0 5.0 0.00 0.00 0.00 46 995.8
20260510145447 74 67 5.0 5.0 0.00 0.00 0.00 43 995.8
20260510145148 75 67 2.0 2.0 0.00 0.00 0.00 43 995.8
20260510144847 75 112 1.0 1.0 0.00 0.00 0.00 43 995.8
20260510144247 75 90 1.0 1.0 0.00 0.00 0.00 41 995.8
20260510143946 75 112 1.0 1.0 0.00 0.00 0.00 40 995.8
20260510143647 74 112 0.0 0.0 0.00 0.00 0.00 40 995.8
20260510143348 74 112 0.0 0.0 0.00 0.00 0.00 40 995.8
20260510143048 75 112 0.0 0.0 0.00 0.00 0.00 39 996.1
20260510142750 75 315 0.0 0.0 0.00 0.00 0.00 39 996.1
20260510142448 75 90 0.0 0.0 0.00 0.00 0.00 39 996.1
20260510142148 75 337 3.0 3.0 0.00 0.00 0.00 41 996.1
20260510141847 75 135 0.0 0.0 0.00 0.00 0.00 39 996.1
20260510141546 76 112 0.0 0.0 0.00 0.00 0.00 40 996.1
20260510141247 74 0 1.0 2.0 0.00 0.00 0.00 38 996.3
20260510140947 76 337 3.0 3.0 0.00 0.00 0.00 43 996.3
20260510140648 75 67 0.0 0.0 0.00 0.00 0.00 41 996.3
20260510140346 76 0 1.0 2.0 0.00 0.00 0.00 40 996.3
20260510140048 76 45 1.0 1.0 0.00 0.00 0.00 41 996.3
20260510135747 76 337 3.0 3.0 0.00 0.00 0.00 40 996.3
20260510135147 77 337 1.0 1.0 0.00 0.00 0.00 39 996.6
20260510134847 76 22 1.0 1.0 0.00 0.00 0.00 37 996.6
20260510134548 78 22 0.0 0.0 0.00 0.00 0.00 39 996.8
20260510134247 78 337 3.0 3.0 0.00 0.00 0.00 40 996.6
20260510133947 77 225 2.0 2.0 0.00 0.00 0.00 40 996.6
20260510133650 77 135 1.0 1.0 0.00 0.00 0.00 39 996.6
20260510133347 76 180 2.0 2.0 0.00 0.00 0.00 41 996.8
20260510133047 76 180 3.0 3.0 0.00 0.00 0.00 40 996.8
20260510132748 76 112 2.0 2.0 0.00 0.00 0.00 39 996.8
20260510132447 77 90 1.0 2.0 0.00 0.00 0.00 40 996.8
20260510132147 76 337 2.0 2.0 0.00 0.00 0.00 38 996.8
20260510131848 78 292 1.0 1.0 0.00 0.00 0.00 39 996.8
20260510131548 77 315 2.0 2.0 0.00 0.00 0.00 41 996.8
20260510131247 76 315 2.0 2.0 0.00 0.00 0.00 40 997.1
20260510130948 75 247 3.0 3.0 0.00 0.00 0.00 40 997.1
20260510130048 77 270 2.0 2.0 0.00 0.00 0.00 43 997.3
20260510125446 76 247 1.0 1.0 0.00 0.00 0.00 41 997.3
20260510125147 76 180 0.0 0.0 0.00 0.00 0.00 41 997.3
20260510124848 75 337 0.0 0.0 0.00 0.00 0.00 41 997.3
20260510124547 74 90 1.0 1.0 0.00 0.00 0.00 40 997.3
20260510124247 75 337 2.0 2.0 0.00 0.00 0.00 42 997.3
20260510123947 75 337 0.0 0.0 0.00 0.00 0.00 42 997.3
20260510123347 73 135 1.0 1.0 0.00 0.00 0.00 40 997.8
20260510122748 74 202 1.0 1.0 0.00 0.00 0.00 41 997.8
20260510122447 74 315 1.0 1.0 0.00 0.00 0.00 42 997.8
20260510122150 73 180 1.0 1.0 0.00 0.00 0.00 42 997.8
20260510121847 74 202 6.0 6.0 0.00 0.00 0.00 43 997.8
20260510121547 75 225 6.0 6.0 0.00 0.00 0.00 46 997.8
20260510121247 75 292 4.0 4.0 0.00 0.00 0.00 43 997.8
20260510120947 75 225 3.0 3.0 0.00 0.00 0.00 44 997.8
20260510120648 75 180 2.0 2.0 0.00 0.00 0.00 45 997.8
20260510120350 74 315 3.0 3.0 0.00 0.00 0.00 44 997.8
20260510120047 74 112 1.0 1.0 0.00 0.00 0.00 44 997.8
20260510115747 74 247 6.0 6.0 0.00 0.00 0.00 47 998.1
20260510115448 74 202 6.0 6.0 0.00 0.00 0.00 46 998.1
20260510114848 72 225 7.0 7.0 0.00 0.00 0.00 44 998.1
20260510114247 74 270 5.0 5.0 0.00 0.00 0.00 45 998.3
20260510113947 75 315 0.0 0.0 0.00 0.00 0.00 48 998.3
20260510113647 74 22 1.0 1.0 0.00 0.00 0.00 49 998.3
20260510113350 73 202 1.0 1.0 0.00 0.00 0.00 48 998.3
20260510113048 74 270 4.0 4.0 0.00 0.00 0.00 50 998.3
20260510112747 73 180 3.0 3.0 0.00 0.00 0.00 52 998.3
20260510112447 73 337 1.0 1.0 0.00 0.00 0.00 49 998.3
20260510112147 73 90 2.0 2.0 0.00 0.00 0.00 49 998.3
20260510111547 73 180 2.0 2.0 0.00 0.00 0.00 56 998.3
20260510110950 72 112 2.0 2.0 0.00 0.00 0.00 50 998.3
20260510110647 72 315 2.0 2.0 0.00 0.00 0.00 52 998.3
20260510110047 71 337 1.0 1.0 0.00 0.00 0.00 52 998.6
20260510105748 71 337 0.0 0.0 0.00 0.00 0.00 52 998.8
20260510105147 71 180 3.0 3.0 0.00 0.00 0.00 51 998.8
20260510104848 72 247 2.0 2.0 0.00 0.00 0.00 54 998.8
20260510104547 71 0 2.0 2.0 0.00 0.00 0.00 53 998.8
20260510103947 72 270 3.0 3.0 0.00 0.00 0.00 54 998.8
20260510103650 70 45 0.0 0.0 0.00 0.00 0.00 54 998.8
20260510103347 70 90 1.0 2.0 0.00 0.00 0.00 53 998.8
20260510103048 70 337 0.0 0.0 0.00 0.00 0.00 52 998.8
20260510102747 71 90 1.0 1.0 0.00 0.00 0.00 52 998.8
20260510102447 72 45 3.0 3.0 0.00 0.00 0.00 56 998.8
20260510101550 72 90 2.0 2.0 0.00 0.00 0.00 57 999.1
20260510101248 71 202 2.0 2.0 0.00 0.00 0.00 57 999.3
20260510100948 70 112 0.0 0.0 0.00 0.00 0.00 55 999.1
20260510100347 69 157 2.0 2.0 0.00 0.00 0.00 54 999.3
20260510100047 69 135 1.0 1.0 0.00 0.00 0.00 56 999.1
20260510095750 69 112 1.0 1.0 0.00 0.00 0.00 58 999.3
20260510095448 69 112 1.0 1.0 0.00 0.00 0.00 59 999.3
20260510095147 70 225 3.0 3.0 0.00 0.00 0.00 58 999.3
20260510094547 70 225 5.0 5.0 0.00 0.00 0.00 59 999.3
20260510094247 70 90 2.0 2.0 0.00 0.00 0.00 58 999.3
20260510093647 69 90 2.0 2.0 0.00 0.00 0.00 58 999.3
20260510093348 68 180 2.0 2.0 0.00 0.00 0.00 60 999.3
20260510093047 69 180 2.0 2.0 0.00 0.00 0.00 62 999.5
20260510092746 69 135 3.0 3.0 0.00 0.00 0.00 60 999.3
20260510092148 68 337 1.0 1.0 0.00 0.00 0.00 62 999.3
20260510091848 68 180 2.0 2.0 0.00 0.00 0.00 61 999.5
20260510091547 67 135 3.0 3.0 0.00 0.00 0.00 62 999.8
20260510091247 67 90 0.0 0.0 0.00 0.00 0.00 61 999.8
20260510090947 67 180 3.0 3.0 0.00 0.00 0.00 64 999.8
20260510090650 67 90 4.0 4.0 0.00 0.00 0.00 63 999.8
20260510090347 67 67 1.0 1.0 0.00 0.00 0.00 64 999.8
20260510085748 66 157 0.0 0.0 0.00 0.00 0.00 64 999.8
20260510085448 66 112 4.0 4.0 0.00 0.00 0.00 67 999.8
20260510085148 65 180 5.0 5.0 0.00 0.00 0.00 67 999.8
20260510084848 64 202 5.0 5.0 0.00 0.00 0.00 65 999.8
20260510084247 63 135 2.0 2.0 0.00 0.00 0.00 66 999.8
20260510083946 62 135 3.0 3.0 0.00 0.00 0.00 66 999.8
20260510083648 62 337 0.0 0.0 0.00 0.00 0.00 65 999.8
20260510083047 62 112 0.0 0.0 0.00 0.00 0.00 65 1000.0
20260510082747 62 112 2.0 2.0 0.00 0.00 0.00 64 1000.0
20260510082447 62 112 2.0 2.0 0.00 0.00 0.00 65 1000.0
20260510082147 62 112 2.0 2.0 0.00 0.00 0.00 66 1000.0
20260510081850 62 90 2.0 2.0 0.00 0.00 0.00 66 1000.0
20260510081247 61 202 4.0 4.0 0.00 0.00 0.00 66 1000.3
20260510080947 61 337 0.0 0.0 0.00 0.00 0.00 67 1000.3
20260510080648 61 180 2.0 2.0 0.00 0.00 0.00 67 1000.3
20260510080348 61 225 2.0 2.0 0.00 0.00 0.00 67 1000.3
20260510080048 61 135 1.0 1.0 0.00 0.00 0.00 67 1000.3
20260510075748 62 337 0.0 0.0 0.00 0.00 0.00 67 1000.5
20260510075448 61 180 3.0 3.0 0.00 0.00 0.00 67 1000.3
20260510075148 60 337 3.0 3.0 0.00 0.00 0.00 68 1000.5
20260510074847 61 180 1.0 1.0 0.00 0.00 0.00 68 1000.3
20260510074547 61 112 0.0 0.0 0.00 0.00 0.00 69 1000.3
20260510074250 61 135 0.0 0.0 0.00 0.00 0.00 69 1000.3
20260510073947 61 90 2.0 2.0 0.00 0.00 0.00 67 1000.3
20260510073647 61 67 3.0 3.0 0.00 0.00 0.00 69 1000.3
20260510073348 60 337 6.0 6.0 0.00 0.00 0.00 69 1000.3
20260510073048 60 337 1.0 1.0 0.00 0.00 0.00 71 1000.3
20260510072147 60 337 0.0 0.0 0.00 0.00 0.00 73 1000.5
20260510071847 59 225 0.0 0.0 0.00 0.00 0.00 74 1000.5
20260510071247 58 225 0.0 0.0 0.00 0.00 0.00 76 1000.5
20260510070948 58 225 0.0 0.0 0.00 0.00 0.00 76 1000.5
20260510070647 58 225 1.0 2.0 0.00 0.00 0.00 76 1000.5
20260510070348 58 202 0.0 0.0 0.00 0.00 0.00 76 1000.5
20260510070047 58 337 1.0 1.0 0.00 0.00 0.00 77 1000.5
20260510065747 57 247 0.0 0.0 0.00 0.00 0.00 79 1000.5
20260510065450 57 225 0.0 0.0 0.00 0.00 0.00 79 1000.5
20260510065148 57 337 0.0 0.0 0.00 0.00 0.00 79 1000.8
20260510064548 56 270 0.0 0.0 0.00 0.00 0.00 81 1000.8
20260510064248 56 202 0.0 0.0 0.00 0.00 0.00 82 1000.8
20260510063948 56 225 0.0 0.0 0.00 0.00 0.00 83 1000.8
20260510063347 55 337 0.0 0.0 0.00 0.00 0.00 85 1000.8
20260510063048 55 225 0.0 0.0 0.00 0.00 0.00 84 1000.8
20260510062747 54 90 0.0 0.0 0.00 0.00 0.00 84 1000.8
20260510062447 54 337 0.0 0.0 0.00 0.00 0.00 84 1000.8
20260510062148 53 90 0.0 0.0 0.00 0.00 0.00 83 1000.8
20260510061847 54 90 0.0 0.0 0.00 0.00 0.00 83 1000.8
20260510061547 53 90 0.0 0.0 0.00 0.00 0.00 84 1000.8
20260510061248 53 337 0.0 0.0 0.00 0.00 0.00 84 1000.8
20260510060648 53 225 0.0 0.0 0.00 0.00 0.00 83 1001.0
20260510060048 52 225 0.0 0.0 0.00 0.00 0.00 83 1001.0
20260510055748 52 0 0.0 0.0 0.00 0.00 0.00 83 1001.3
20260510055448 52 0 0.0 0.0 0.00 0.00 0.00 83 1001.3
20260510055148 52 0 0.0 0.0 0.00 0.00 0.00 83 1001.3
20260510054850 52 0 0.0 0.0 0.00 0.00 0.00 83 1001.3
20260510053947 51 0 0.0 0.0 0.00 0.00 0.00 83 1001.3
20260510053346 51 22 0.0 0.0 0.00 0.00 0.00 83 1001.0
20260510052748 50 90 0.0 0.0 0.00 0.00 0.00 84 1001.3
20260510052447 50 90 0.0 0.0 0.00 0.00 0.00 84 1001.0
20260510052148 50 337 0.0 0.0 0.00 0.00 0.00 83 1001.0
20260510051848 50 90 0.0 0.0 0.00 0.00 0.00 84 1001.3
20260510051547 50 337 0.0 0.0 0.00 0.00 0.00 83 1001.3
20260510050950 49 90 0.0 0.0 0.00 0.00 0.00 83 1001.3
20260510050647 49 90 0.0 0.0 0.00 0.00 0.00 83 1001.3
20260510050347 49 337 0.0 0.0 0.00 0.00 0.00 83 1001.3
20260510045748 49 90 0.0 0.0 0.00 0.00 0.00 84 1001.3
20260510045448 49 90 0.0 0.0 0.00 0.00 0.00 83 1001.3
20260510044850 49 90 0.0 0.0 0.00 0.00 0.00 83 1001.3
20260510044547 48 337 0.0 0.0 0.00 0.00 0.00 83 1001.3
20260510044247 48 90 0.0 0.0 0.00 0.00 0.00 83 1001.3
20260510043947 48 90 0.0 0.0 0.00 0.00 0.00 83 1001.3
20260510043648 48 112 1.0 1.0 0.00 0.00 0.00 82 1001.3
20260510043347 48 180 1.0 1.0 0.00 0.00 0.00 83 1001.3
20260510043048 48 225 0.0 0.0 0.00 0.00 0.00 83 1001.5
20260510042150 48 0 0.0 0.0 0.00 0.00 0.00 82 1001.5
20260510041847 48 0 0.0 0.0 0.00 0.00 0.00 82 1001.3
20260510041547 47 337 1.0 1.0 0.00 0.00 0.00 82 1001.5
20260510041248 47 315 1.0 1.0 0.00 0.00 0.00 82 1001.3
20260510040946 47 112 0.0 0.0 0.00 0.00 0.00 82 1001.3
20260510040650 47 112 0.0 0.0 0.00 0.00 0.00 83 1001.3
20260510040347 47 112 0.0 0.0 0.00 0.00 0.00 83 1001.5
20260510040048 47 90 0.0 0.0 0.00 0.00 0.00 83 1001.5
20260510035747 47 90 0.0 0.0 0.00 0.00 0.00 83 1001.3
20260510034850 47 90 0.0 0.0 0.00 0.00 0.00 81 1001.3
20260510034547 47 90 0.0 0.0 0.00 0.00 0.00 81 1001.5
20260510034248 46 90 0.0 0.0 0.00 0.00 0.00 81 1001.3
20260510033947 46 90 0.0 0.0 0.00 0.00 0.00 80 1001.5
20260510033647 46 90 1.0 1.0 0.00 0.00 0.00 80 1001.5
20260510033347 46 202 0.0 0.0 0.00 0.00 0.00 80 1001.5
20260510032447 46 202 0.0 0.0 0.00 0.00 0.00 80 1001.3
20260510032147 46 225 0.0 0.0 0.00 0.00 0.00 79 1001.5
20260510031547 46 315 0.0 0.0 0.00 0.00 0.00 79 1001.3
20260510031248 46 315 0.0 0.0 0.00 0.00 0.00 79 1001.3
20260510030947 45 0 0.0 0.0 0.00 0.00 0.00 79 1001.3
20260510030650 46 337 0.0 0.0 0.00 0.00 0.00 79 1001.5
20260510030348 46 45 0.0 0.0 0.00 0.00 0.00 78 1001.3
20260510030046 46 0 0.0 0.0 0.00 0.00 0.00 79 1001.5
20260510025148 46 337 0.0 0.0 0.00 0.00 0.00 78 1001.5
20260510024548 45 0 0.0 0.0 0.00 0.00 0.00 78 1001.8
20260510024248 45 90 0.0 0.0 0.00 0.00 0.00 78 1001.8
20260510023948 45 90 0.0 0.0 0.00 0.00 0.00 78 1001.8
20260510023647 45 112 0.0 0.0 0.00 0.00 0.00 77 1001.8
20260510023347 45 112 0.0 0.0 0.00 0.00 0.00 77 1001.8
20260510023047 45 112 0.0 0.0 0.00 0.00 0.00 77 1001.8
20260510022148 45 45 0.0 0.0 0.00 0.00 0.00 76 1001.8
20260510021847 45 0 0.0 0.0 0.00 0.00 0.00 76 1001.8
20260510021548 45 337 0.0 0.0 0.00 0.00 0.00 76 1001.8
20260510021248 45 0 0.0 0.0 0.00 0.00 0.00 76 1001.8
20260510020947 45 0 0.0 0.0 0.00 0.00 0.00 75 1001.8
20260510020348 45 0 0.0 0.0 0.00 0.00 0.00 75 1001.8
20260510020048 45 0 0.0 0.0 0.00 0.00 0.00 75 1001.8
20260510015747 45 337 0.0 0.0 0.00 0.00 0.00 76 1001.8
20260510015448 46 337 0.0 0.0 0.00 0.00 0.00 76 1001.8
20260510015148 46 180 0.0 0.0 0.00 0.00 0.00 76 1001.8
20260510014548 46 225 0.0 0.0 0.00 0.00 0.00 75 1002.0
20260510014247 46 225 0.0 0.0 0.00 0.00 0.00 75 1001.8
20260510013648 47 202 0.0 0.0 0.00 0.00 0.00 75 1001.8
20260510013348 47 225 0.0 0.0 0.00 0.00 0.00 75 1002.0
20260510013048 46 180 0.0 0.0 0.00 0.00 0.00 75 1002.3
20260510012448 46 337 0.0 0.0 0.00 0.00 0.00 75 1002.3
20260510012148 46 22 0.0 0.0 0.00 0.00 0.00 74 1002.3
20260510011847 46 135 0.0 0.0 0.00 0.00 0.00 74 1002.3
20260510011548 46 0 0.0 0.0 0.00 0.00 0.00 74 1002.3
20260510011247 46 0 0.0 0.0 0.00 0.00 0.00 74 1002.3
20260510010948 46 22 0.0 0.0 0.00 0.00 0.00 74 1002.3
20260510010650 46 135 0.0 0.0 0.00 0.00 0.00 74 1002.3
20260510010347 46 112 0.0 0.0 0.00 0.00 0.00 74 1002.3
20260510005748 47 337 0.0 0.0 0.00 0.00 0.00 73 1002.5
20260510005447 46 292 0.0 0.0 0.00 0.00 0.00 73 1002.5
20260510005147 46 337 0.0 0.0 0.00 0.00 0.00 73 1002.5
20260510004847 47 315 1.0 1.0 0.00 0.00 0.00 73 1002.5
20260510004247 47 135 0.0 0.0 0.00 0.00 0.00 73 1002.3
20260510003647 47 90 1.0 1.0 0.00 0.00 0.00 73 1002.5
20260510003347 47 67 0.0 0.0 0.00 0.00 0.00 73 1002.8
20260510003046 47 112 0.0 0.0 0.00 0.00 0.00 73 1002.5
20260510002748 48 112 0.0 0.0 0.00 0.00 0.00 73 1002.8
20260510002450 48 112 1.0 1.0 0.00 0.00 0.00 73 1002.8
20260510002148 48 157 0.0 0.0 0.00 0.00 0.00 73 1002.8
20260510001847 48 135 0.0 0.0 0.00 0.00 0.00 72 1002.8
20260510001248 49 337 0.0 0.0 0.00 0.00 0.00 73 1002.8
20260510000947 49 45 0.0 0.0 0.00 0.00 0.00 72 1002.8
20260510000647 49 337 0.0 0.0 0.00 0.00 0.00 72 1002.8
20260510000350 49 45 0.0 0.0 0.00 0.00 0.00 72 1002.8
20260510000048 50 90 0.0 0.0 0.00 0.00 0.00 72 1003.0
20260509235448 50 45 0.0 0.0 0.00 0.00 0.00 72 1003.0
20260509235147 50 0 1.0 1.0 0.00 0.00 0.00 72 1003.3
20260509234848 50 45 0.0 0.0 0.00 0.00 0.00 72 1003.3
20260509233947 51 0 0.0 0.0 0.00 0.00 0.00 72 1003.3
20260509233648 50 22 1.0 1.0 0.00 0.00 0.00 72 1003.5
20260509233347 51 337 1.0 1.0 0.00 0.00 0.00 72 1003.5
20260509233047 51 22 0.0 0.0 0.00 0.00 0.00 72 1003.5
20260509232748 51 337 0.0 0.0 0.00 0.00 0.00 72 1003.8
20260509232450 51 337 2.0 2.0 0.00 0.00 0.00 72 1003.8
20260509232148 51 0 1.0 2.0 0.00 0.00 0.00 72 1003.8
20260509231847 51 337 2.0 2.0 0.00 0.00 0.00 71 1003.8
20260509231548 50 112 0.0 0.0 0.00 0.00 0.00 71 1003.8
20260509231247 50 270 0.0 0.0 0.00 0.00 0.00 71 1003.8
20260509230947 50 135 0.0 0.0 0.00 0.00 0.00 71 1003.8
20260509230647 50 225 0.0 0.0 0.00 0.00 0.00 71 1003.8
20260509230350 51 337 0.0 0.0 0.00 0.00 0.00 71 1003.8
20260509230048 51 22 1.0 1.0 0.00 0.00 0.00 71 1003.5
20260509225748 51 67 3.0 4.0 0.00 0.00 0.00 71 1003.8
20260509225148 51 90 2.0 2.0 0.00 0.00 0.00 71 1003.8
20260509224548 51 90 2.0 2.0 0.00 0.00 0.00 70 1003.8
20260509224250 51 0 0.0 0.0 0.00 0.00 0.00 71 1003.8
20260509223948 51 337 1.0 1.0 0.00 0.00 0.00 71 1003.8
20260509223648 51 112 1.0 1.0 0.00 0.00 0.00 71 1003.5
20260509223347 51 337 1.0 1.0 0.00 0.00 0.00 70 1003.5
20260509223047 51 112 0.0 0.0 0.00 0.00 0.00 70 1003.8
20260509222747 52 45 2.0 2.0 0.00 0.00 0.00 70 1003.8
20260509222150 52 112 0.0 0.0 0.00 0.00 0.00 69 1003.8
20260509221547 52 67 0.0 0.0 0.00 0.00 0.00 70 1004.0
20260509221248 53 90 5.0 5.0 0.00 0.00 0.00 70 1003.8
20260509220946 53 90 6.0 6.0 0.00 0.00 0.00 70 1003.8
20260509220647 53 112 3.0 3.0 0.00 0.00 0.00 69 1003.8
20260509220350 53 337 5.0 5.0 0.00 0.00 0.00 69 1003.8
20260509220050 53 90 3.0 3.0 0.00 0.00 0.00 69 1003.8
20260509215748 54 90 4.0 4.0 0.00 0.00 0.00 68 1004.0
20260509215447 54 67 5.0 5.0 0.00 0.00 0.00 69 1004.0
20260509215147 54 90 3.0 4.0 0.00 0.00 0.00 68 1003.8
20260509214848 54 90 8.0 8.0 0.00 0.00 0.00 69 1003.8
20260509214548 54 112 6.0 6.0 0.00 0.00 0.00 69 1003.8
20260509214247 54 180 2.0 2.0 0.00 0.00 0.00 69 1004.0
20260509213950 55 112 3.0 4.0 0.00 0.00 0.00 69 1003.8
20260509213647 54 67 7.0 7.0 0.00 0.00 0.00 68 1003.8
20260509213348 54 22 2.0 2.0 0.00 0.00 0.00 69 1003.8
20260509212748 54 0 2.0 2.0 0.00 0.00 0.00 68 1003.8
20260509212448 54 90 10.0 10.0 0.00 0.00 0.00 68 1003.8
20260509212148 54 67 3.0 4.0 0.00 0.00 0.00 68 1003.8
20260509211547 55 90 5.0 6.0 0.00 0.00 0.00 69 1003.8
20260509210648 54 67 1.0 1.0 0.00 0.00 0.00 69 1004.0
20260509210347 54 90 2.0 2.0 0.00 0.00 0.00 68 1004.0
20260509210050 54 67 4.0 4.0 0.00 0.00 0.00 68 1003.8
20260509205748 54 90 6.0 6.0 0.00 0.00 0.00 68 1004.0
20260509205448 54 90 4.0 4.0 0.00 0.00 0.00 68 1004.0
20260509205147 54 45 1.0 1.0 0.00 0.00 0.00 68 1004.0